Location: New Frontier Mobile Home Park
(32.8448°N, 116.9675°W)
Time: 23:02:26
(UTC+00:00)

Cosmos 1980 Rocket - Pass Details

Date: 14 July 2020
Orbit: 828 x 851 km, 71.0° (Epoch: 05 August)

Event Time Altitude Azimuth Distance (km) Brightness Sun altitude
Rises 10:13:02 0° 347° (NNW) 3,420 5.9 -26.2°
Reaches altitude 10° 10:15:38 10° 355° (N) 2,480 5.2 -25.9°
Maximum altitude 10:21:01 42° 65° (ENE) 1,198 3.3 -25.2°
Drops below altitude 10° 10:26:20 10° 135° (SE) 2,457 4.5 -24.5°
Sets 10:28:53 0° 142° (SE) 3,385 5.2 -24.2°
